sat.trackr.live / text

‹ back to catalog

IRIDIUM 155

NORAD 43573 · 2018-061E

PAYLOAD ACTIVE UNKNOWN

§ Identity

Operator
Country
US
Launch date
2018-07-25
Launch site
AFWTR
Launch vehicle
Mass (kg)
RCS (m²)

Purposes: comms

External: N2YO · Heavens-Above · Gunter

§ Orbital elements

Epoch: 2026-05-24T19:24:06.307776Z

Period
100.40 min
Inclination
86.3966°
Eccentricity
0.0002340
Mean motion
14.34218867 rev/d
Perigee alt
776.0 km
Apogee alt
779.3 km
Semi-major
7,155.8 km
B*
3.0372e-5
RAAN
66.4471°
Arg perigee
81.8721°
Mean anomaly
278.2741°
Rev number
41,000

§ Raw data

IRIDIUM 1551 43573U 18061E   26144.80840634  .00000105  00000+0  30372-4 0  99922 43573  86.3966  66.4471 0002340  81.8721 278.2741 14.34218867410006

JSON: /api/v1/satellites/43573 · /tle

For live sub-satellite position, see the globe view (requires WebGL).

§ Visibility from observer

Set your observer location to see the next 7 days of passes ≥ 10°. The values pass through the URL so the page stays shareable.

No JS? Fill the form by hand. The geolocation button needs JavaScript.